Which Girls Have Improved The Most Thru First Half Of XC?

This content requires a MileSplit Pro plan.
Join Now and select any plan for instant access!

MileSplit Pro
Join Now
See the time improvements of the top girls cross country runners in the state of Utah from last year.

Athlete 2018 2017 Difference
Bailey Brinkerhoff 16:47.20 16:36.60 10.60
Samantha Nelson 16:58.80 19:08.20 ( 2:09.40 )
Anna Martin 17:17.10 17:53.10 ( 36.00 )
Trinity Schimbeck 17:40.10 18:06.90 ( 26.80 )
Karli Branch 17:41.40 17:35.10 6.30
Helena Miyazawa 17:42.10 17:47.60 ( 5.50 )
Chloe Kockler 17:42.50 18:02.10 ( 19.60 )
Ellie Lundgreen 17:43.20 18:19.06 ( 35.86 )
Elisabeth Ferrell 17:44.30 19:13.88 ( 1:29.58 )
Laurie Murphy 17:44.80 19:40.20 ( 1:55.40 )
Reagan Gardner 17:45.90 18:07.20 ( 21.30 )
Lily Poulton 17:47.00 17:40.90 6.10
Eliza Arrington 17:47.40 17:56.70 ( 9.30 )
Carlee Hansen 17:47.80 17:30.70 17.10
Jessica Hill 17:51.20 17:14.90 36.30
Heidi Sumsion 17:52.10 17:18.50 33.60
Alli Baker 17:55.10 18:19.80 ( 24.70 )
Harley Taylor 17:59.70 17:02.50 57.20
Sidney Preator 18:07.80 19:40.30 ( 1:32.50 )
Grace Burnett 18:08.00 18:31.50 ( 23.50 )
Sami Lee 18:11.30 18:27.50 ( 16.20 )
Mariah Skinner 18:12.90 18:38.20 ( 25.30 )
Lauren Leukenga 18:15.20 17:27.70 47.50
Abby Jensen 18:16.60 17:45.50 31.10
Ali Bybee 18:16.80 18:04.10 12.70
Kaysie Klemic 18:18.30 18:02.00 16.30
Megan Terry 18:19.30 18:43.87 ( 24.57 )
Kate Thomas 18:19.30 18:29.40 ( 10.10 )
Madison Seegmiller 18:20.20 19:28.66 ( 1:08.46 )
Trisha Thompson 18:21.50 19:45.70 ( 1:24.20 )
Hailey Kidd 18:22.20 19:58.90 ( 1:36.70 )
Shanee Harris 18:22.80 17:39.70 43.10
Anna Sophia Rorrer Warren 18:25.00 20:15.30 ( 1:50.30 )
Morgan Jensen 18:28.60 19:30.20 ( 1:01.60 )
Jane Fredrick 18:29.30 21:16.70 ( 2:47.40 )
Bonita Gray 18:31.10 18:33.90 ( 2.80 )
Porshe Eismann 18:31.90 18:37.50 ( 5.60 )
Maddy Boulton 18:32.20 18:06.10 26.10
Hailey Odekirk 18:33.60 18:25.30 8.30
Rosalind Schraedel 18:35.60 19:09.88 ( 34.28 )
Mya Mckown 18:38.20 18:31.60 6.60
Anna Powell 18:41.30 18:43.90 ( 2.60 )
Malayna Steffensen 18:43.50 18:42.30 1.20
Elizibeth Wilcox 18:44.00 19:20.60 ( 36.60 )
Abbie Randall 18:44.10 19:04.00 ( 19.90 )
Taylor Smart 18:44.90 21:34.00 ( 2:49.10 )
Sydney Hedquist 18:45.80 18:57.59 ( 11.79 )
Madison Strasner 18:46.30 20:07.60 ( 1:21.30 )
Haley Rountree 18:46.50 18:35.20 11.30
Rachel Margetts 18:46.60 18:59.00 ( 12.40 )
Aniya Bobo 18:47.10 18:30.53 16.57
Kylah Ricks 18:47.60 18:41.90 5.70
Madison Patrick 18:48.10 19:43.40 ( 55.30 )
Bethany Blakey 18:48.60 20:12.20 ( 1:23.60 )
Michelle Christian 18:48.80 19:06.00 ( 17.20 )
Kate Richardson 18:49.20 19:06.00 ( 16.80 )
Rylee Holt 18:49.70 18:35.00 14.70
Kate Allred 18:52.20 18:31.60 20.60
Meredith Parker 18:52.60 19:52.90 ( 1:00.30 )
Abigail Gray 18:53.00 18:48.10 4.90
Adelai Moore 18:53.10 19:27.90 ( 34.80 )
Monet Winger 18:53.20 18:44.20 9.00
Lily Nettesheim 18:55.90 19:00.40 ( 4.50 )
Arianna Steiner 18:56.00 20:34.30 ( 1:38.30 )
Sylvia Brown 18:56.00 18:44.50 11.50
Amanda Marchant 18:56.30 18:39.50 16.80
Kelsi Lindley 18:57.10 19:03.60 ( 6.50 )
Kallyn Chynoweth 18:57.20 19:29.60 ( 32.40 )
Camilla Adams 19:00.70 21:02.20 ( 2:01.50 )
Abby Barrus 19:00.80 18:52.20 8.60
Hallie Kemp 19:01.00 19:17.40 ( 16.40 )
Bayleigh Redd 19:02.30 19:54.50 ( 52.20 )
Madi Hafen 19:02.80 18:07.40 55.40
Mackenzie Hess 19:02.80 18:30.80 32.00
Taylia Norris 19:03.00 18:15.50 47.50
Makaila Runnels 19:04.30 19:57.70 ( 53.40 )
Audrey Camp 19:06.30 19:06.60 ( 0.30 )
Katy Kelly 19:06.70 19:18.80 ( 12.10 )
Sydney Stout 19:06.80 19:08.60 ( 1.80 )
Avery Baldwin 19:08.50 19:23.00 ( 14.50 )
Ella Park 19:08.90 18:50.50 18.40
Mackenzie Meldrum 19:09.00 19:34.90 ( 25.90 )
Ashley Lagat 19:09.50 19:17.90 ( 8.40 )
Madison Hess 19:09.90 18:18.30 51.60
Meghan Hunter 19:10.50 18:32.10 38.40
Maelyn Mace 19:11.30 20:44.80 ( 1:33.50 )
Abby Rasmussen 19:12.10 19:01.20 10.90
Lydia Felix 19:12.40 19:44.10 ( 31.70 )
Kaitlyn Gee 19:12.50 19:20.30 ( 7.80 )
Alexia Larsen 19:12.60 19:43.80 ( 31.20 )
Madison White 19:13.60 20:25.10 ( 1:11.50 )
Baylee Vogler 19:13.80 20:25.80 ( 1:12.00 )
Hailey Hess 19:14.10 18:45.90 28.20
Gracie Clements 19:14.70 19:29.60 ( 14.90 )
Saylor Lighten 19:15.40 20:25.25 ( 1:09.85 )
Maura Williams 19:18.90 19:14.97 3.93
Eliza Lindstrom 19:19.00 19:03.60 15.40
Lizzie Ware 19:19.10 19:26.60 ( 7.50 )
Sheilah Cheruiyot 19:19.30 19:14.40 4.90
Maryn Granger 19:19.60 20:05.00 ( 45.40 )
Blaklee Butler 19:20.50 19:21.40 ( 0.90 )
Samantha Olson 19:20.50 19:42.62 ( 22.12 )
Brooklyn Hopkins 19:22.00 19:37.00 ( 15.00 )
Mackay Hardy 19:22.06 19:17.91 4.15
Sophia Loose 19:22.30 20:03.70 ( 41.40 )
Lexi Jonart 19:22.60 19:22.40 0.20
Hannah Bahr 19:23.00 20:51.20 ( 1:28.20 )
Jennica Robinson 19:23.75 20:01.44 ( 37.69 )
Elizabeth Pike 19:23.90 20:38.00 ( 1:14.10 )
Sarah Merrill 19:24.20 20:23.90 ( 59.70 )
Katie Peterson 19:24.50 20:06.10 ( 41.60 )
Brooke Mashburn 19:24.70 19:28.50 ( 3.80 )
Pyper Holt 19:25.00 20:31.90 ( 1:06.90 )
Emma Barnett 19:25.80 19:26.90 ( 1.10 )
Mikaeli Hill 19:26.00 21:21.10 ( 1:55.10 )
Kaylee Anderson 19:26.20 19:46.70 ( 20.50 )
Addi Baker 19:26.50 20:02.10 ( 35.60 )
Madi Strasner 19:26.90 20:10.70 ( 43.80 )
Abi Waddoups 19:28.40 19:46.62 ( 18.22 )
Katie Crabtree 19:29.70 19:40.20 ( 10.50 )
Hallie Morris 19:29.88 20:28.91 ( 59.03 )
Makena Harbertson 19:30.10 20:03.00 ( 32.90 )
Kimmie Winward 19:30.50 20:06.10 ( 35.60 )
Brooklynn Gee 19:31.30 20:47.90 ( 1:16.60 )
Whitney Walpole 19:32.80 20:44.40 ( 1:11.60 )
Jaden Singleton 19:32.90 20:43.60 ( 1:10.70 )
Danielle Shock 19:34.10 19:16.70 17.40
Hannah Pope 19:35.00 19:52.96 ( 17.96 )
Kaylee Gilbert 19:35.30 20:49.30 ( 1:14.00 )
Victoria Galley 19:35.40 19:30.00 5.40
Fearnley Grace 19:36.30 21:26.20 ( 1:49.90 )
Becca Romney 19:36.70 19:28.70 8.00
Anna Baird 19:36.80 19:18.40 18.40
Shelby Stubbs 19:37.50 20:26.90 ( 49.40 )
Shelby Archer 19:37.70 19:12.30 25.40
Kinley Spaulding 19:38.30 19:24.70 13.60
Elizabeth Zwahlen 19:39.60 19:35.00 4.60
AnnaBeth Templeman 19:39.68 18:16.10 1:23.58
Ashley Faragher 19:39.70 20:07.00 ( 27.30 )
Mia Legas 19:40.30 21:38.00 ( 1:57.70 )
Kailey Gilbert 19:40.50 21:31.20 ( 1:50.70 )
Allison Ely 19:41.20 20:39.60 ( 58.40 )
Hailey Ellis 19:42.00 20:08.90 ( 26.90 )
Jaylee Sorenson 19:42.20 19:40.10 2.10
Abby Benson 19:42.30 19:13.60 28.70
Shailee Hansen 19:42.60 20:08.87 ( 26.27 )
Makell Corry 19:42.80 20:47.00 ( 1:04.20 )
Emily Mann 19:43.20 19:17.50 25.70
Emily Spaulding 19:44.10 20:43.50 ( 59.40 )
Cydney Shields 19:44.30 20:06.70 ( 22.40 )
Rachel Slaugh 19:44.50 19:29.60 14.90
Paige Rousey 19:45.70 19:35.00 10.70
Kristi Deffner 19:46.00 19:02.50 43.50
Brie Steele 19:47.00 20:44.50 ( 57.50 )
Kenzie Bybee 19:47.00 20:05.80 ( 18.80 )
Eliza Beazer 19:47.40 18:43.80 1:03.60
Grace Baker 19:50.00 21:38.40 ( 1:48.40 )
Regan Hansen 19:51.00 20:31.60 ( 40.60 )
Grace Drury 19:52.00 22:02.10 ( 2:10.10 )
Jocelyn Summers 19:52.00 24:35.91 ( 4:43.91 )
Lily Evans 19:52.30 19:41.40 10.90
Shelbie Hickman 19:52.60 20:47.40 ( 54.80 )
Samantha Herman 19:53.80 19:56.35 ( 2.55 )
Anna Scholes 19:54.00 20:11.70 ( 17.70 )
Brynn Black 19:54.10 21:01.20 ( 1:07.10 )
Brea Bulkley 19:55.00 20:08.50 ( 13.50 )
Maya Connolly 19:55.20 20:54.30 ( 59.10 )
Sadona Hansen 19:55.30 33:53.20 ( 13:57.90 )
Serra Hook 19:56.30 19:49.60 6.70
Avery Low 19:56.53 20:08.56 ( 12.03 )
Sidney Snow 19:56.90 19:59.70 ( 2.80 )
Seonna Southwick 19:56.90 19:23.60 33.30
Armelia Johnson 19:57.70 20:52.80 ( 55.10 )
Abbey Blair 19:57.80 19:09.50 48.30
Regan Abbott 19:58.40 20:05.31 ( 6.91 )
Morgan Scott 19:59.60 21:19.20 ( 1:19.60 )
Bailey Brown 19:59.90 19:58.20 1.70
Jacelin Clayton 20:01.70 19:20.40 41.30
Emily Chatfield 20:02.60 20:20.80 ( 18.20 )
Brooke Larson 20:02.90 19:09.50 53.40
Allie Green 20:03.60 19:36.80 26.80
Cassidy Elmont 20:05.40 20:41.60 ( 36.20 )
Abbygale Schooley 20:05.50 23:23.10 ( 3:17.60 )
Brylee Wilcox 20:06.00 20:06.60 ( 0.60 )
Samantha Stokes 20:06.30 18:08.30 1:58.00
Katelin Chipman 20:07.10 20:29.70 ( 22.60 )
Erica Davis 20:09.00 22:26.30 ( 2:17.30 )
Sydni Smith 20:09.00 20:51.75 ( 42.75 )
Christina Wood 20:09.10 19:24.90 44.20
Marlie Taylor 20:09.50 19:20.20 49.30
Abby Gray 20:09.79 22:47.40 ( 2:37.61 )
Gentry Pierce 20:10.00 19:35.40 34.60
Jenna Lund 20:10.66 20:50.28 ( 39.62 )
Audrey Iverson 20:11.00 20:21.90 ( 10.90 )
Megan Allart 20:11.90 19:56.31 15.59
Jada Chepkwurui 20:12.00 20:11.00 1.00
Katelyn Howe 20:12.30 20:50.60 ( 38.30 )
Sarah Snow 20:13.30 19:12.90 1:00.40
Emma Haddock 20:13.90 21:46.30 ( 1:32.40 )
Jamie Holt 20:14.50 20:48.80 ( 34.30 )
Jerilynn Egnew 20:15.40 20:11.80 3.60
Kaisa Arnell 20:16.00 21:01.50 ( 45.50 )
Macie Lee 20:16.60 20:42.40 ( 25.80 )
Alivia Scoresby 20:17.10 21:42.70 ( 1:25.60 )
Rebecca Teeples 20:17.60 20:11.40 6.20
Brinley Hess 20:17.80 19:29.90 47.90
Rachel Winterton 20:18.20 19:05.00 1:13.20
Madelyn King 20:18.20 20:37.80 ( 19.60 )
Brooke Reed 20:18.30 22:02.80 ( 1:44.50 )
Makenzi Smith 20:18.60 19:57.30 21.30
Lane Chipman 20:18.70 20:16.90 1.80
Mckenna Rogers 20:18.80 19:25.50 53.30
Olivia Penrod 20:19.00 21:48.20 ( 1:29.20 )
Katie Rex 20:19.00 20:03.30 15.70
Hallie Noorda 20:20.40 21:10.20 ( 49.80 )
Chasity Munoz 20:20.40 20:09.00 11.40
Jenna Boyer 20:21.10 21:36.50 ( 1:15.40 )
Susanna Bergeson 20:22.00 19:54.60 27.40
Callie Morgan 20:22.30 20:48.00 ( 25.70 )
Sadie Lehnhof 20:23.00 21:17.00 ( 54.00 )
Jenna Chariton 20:23.40 20:05.00 18.40
Savanna Dorrough 20:23.40 21:40.90 ( 1:17.50 )
Janessa Finch 20:23.90 19:57.00 26.90
Bailey Kealamakia 20:24.20 20:30.44 ( 6.24 )
Brooke Thomas 20:25.90 19:16.70 1:09.20
Bella Porter 20:27.00 20:36.20 ( 9.20 )
Ashlyn Patterson 20:27.10 19:45.90 41.20
Sedona Hansen 20:27.20 21:15.10 ( 47.90 )
Emily Wallgren 20:27.80 21:14.40 ( 46.60 )
Hope Smith 20:28.00 22:14.28 ( 1:46.28 )
Miranda Allen 20:28.10 20:10.50 17.60
Madalyn Steffensen 20:28.10 22:15.70 ( 1:47.60 )
Geneva Humbert 20:28.40 19:56.40 32.00
Brynne Macwilliams 20:29.00 21:34.60 ( 1:05.60 )
Elena Allen 20:29.20 19:13.50 1:15.70
Callie Barker 20:29.80 20:38.00 ( 8.20 )
Izzy Wall 20:30.00 19:47.60 42.40
Allison Brown 20:30.70 20:29.00 1.70
Ellie Anderson 20:31.00 22:16.09 ( 1:45.09 )
Juliana Banks 20:32.90 21:03.90 ( 31.00 )
Emily Gunn 20:33.60 20:58.20 ( 24.60 )
Isabelle Smith 20:34.30 21:10.80 ( 36.50 )
Taylor Hancey 20:34.50 20:59.50 ( 25.00 )
Hannah Hunt 20:34.62 22:44.18 ( 2:09.56 )
Lauren Hancey 20:34.90 21:01.80 ( 26.90 )
Emmalee Peterson 20:34.90 21:01.70 ( 26.80 )
Madisyn Scoville 20:35.00 21:09.70 ( 34.70 )
Chloe Caldwell 20:35.80 21:22.70 ( 46.90 )
Melanie Gomez 20:36.00 19:35.30 1:00.70
Natalie O'neil 20:36.20 20:06.60 29.60
Alissa Allen 20:36.60 21:24.70 ( 48.10 )
Marina Brawand 20:36.80 19:49.20 47.60
Margi Carter 20:37.30 20:40.90 ( 3.60 )
Rachel Ball 20:37.40 22:37.19 ( 1:59.79 )
Julia Shumway 20:37.50 19:50.00 47.50
Kelsey Lassiter 20:38.20 21:14.90 ( 36.70 )
Anna McCullough 20:38.50 21:15.60 ( 37.10 )
Rachel Kinikini 20:38.90 20:14.00 24.90
Amanda Goddard 20:39.90 19:57.00 42.90
Kimball Clements 20:40.00 20:29.30 10.70
Anna Carter 20:40.40 19:30.30 1:10.10
Libby Brooks 20:40.60 21:13.40 ( 32.80 )
Elizabeth Dove 20:42.84 20:57.25 ( 14.41 )
Makayla Harlin 20:42.90 21:21.60 ( 38.70 )
Lauren Heninger 20:43.00 22:03.20 ( 1:20.20 )
Molly Jensen 20:43.70 20:53.80 ( 10.10 )
Savannah Stouffer 20:44.40 21:09.80 ( 25.40 )
Jane Hansen 20:44.96 22:58.30 ( 2:13.34 )
Kate Cooper 20:45.10 20:11.30 33.80
Akaydeh Livingston 20:45.40 20:22.60 22.80
Sami Eberhardt 20:45.80 22:27.98 ( 1:42.18 )
Joelle Spilker 20:46.20 20:44.00 2.20
Felicia Barcinas 20:47.09 21:45.62 ( 58.53 )
Brooklyn Smith 20:47.30 20:44.40 2.90
Rebekah Daniels 20:48.00 21:15.30 ( 27.30 )
Brook Stratton 20:48.20 20:54.50 ( 6.30 )
Makayla Lawson 20:48.50 20:07.40 41.10
Rylie Dutson 20:48.53 20:09.00 39.53
Kayla Reich 20:49.50 21:27.60 ( 38.10 )
Sadie Schenk 20:50.40 20:10.00 40.40
Sariah Jackson 20:50.81 20:52.70 ( 1.89 )
Emilee Vick 20:52.40 20:43.10 9.30
Ember Moat 20:52.80 19:56.63 56.17
Sami Adamson 20:53.80 21:39.20 ( 45.40 )
Becca Cryer 20:54.30 21:02.10 ( 7.80 )
Grace Broadbear 20:55.00 21:45.30 ( 50.30 )
Eliza Livingston 20:55.80 23:24.40 ( 2:28.60 )
Emilea Anderson 20:56.40 20:15.00 41.40
Natalie Walker 20:57.30 19:58.10 59.20
Alysa Lindley 20:57.50 21:17.80 ( 20.30 )
Hannah Young 20:57.80 19:04.60 1:53.20
Mathilde Oscarson 20:57.80 26:13.40 ( 5:15.60 )
Macie Barney 20:58.00 18:06.30 2:51.70
Remy Nash 20:59.00 20:37.64 21.36
Allison Young 20:59.60 22:48.90 ( 1:49.30 )
Kaiya Barker 20:59.80 21:14.30 ( 14.50 )
Madi Tartaro 21:01.00 19:26.80 1:34.20
Mallory Mccarter 21:01.60 24:10.20 ( 3:08.60 )
Erika Olson 21:01.75 18:49.50 2:12.25
Kaysha Peterson 21:02.00 22:15.50 ( 1:13.50 )
Abby Murphy 21:02.40 22:28.30 ( 1:25.90 )
Makenzie Lawson 21:02.60 21:01.70 0.90
Jadyn Rees 21:03.50 20:04.10 59.40
Avalon Marker 21:03.90 21:03.20 0.70
Allison Ryan 21:04.70 19:49.90 1:14.80
Megan Spence 21:05.00 22:26.00 ( 1:21.00 )
Abby Weyand 21:05.50 20:21.80 43.70
Hope Miller 21:07.60 21:29.10 ( 21.50 )
Jocelyn Lund 21:08.60 20:06.30 1:02.30
Jessica Anderson 21:08.90 22:36.90 ( 1:28.00 )
Melody Anderson 21:09.30 21:31.20 ( 21.90 )
Aspen Workman 21:10.10 21:11.20 ( 1.10 )
Brooke Call 21:10.20 20:11.60 58.60
Paige Sieverts 21:10.30 20:59.11 11.19
Tilly Vasquez 21:10.80 20:25.00 45.80
Kaylee Long 21:10.90 22:41.00 ( 1:30.10 )
Elizabeth Judd 21:13.03 21:26.00 ( 12.97 )
Sadie Robb 21:13.34 22:33.44 ( 1:20.10 )
Holly Johansen 21:13.60 20:24.60 49.00
Stephanie Burnham 21:13.70 20:56.28 17.42
Anika Scherer 21:15.20 21:00.50 14.70
Malina Srianan 21:15.30 24:53.40 ( 3:38.10 )
Rebecca Cromar 21:15.60 20:24.60 51.00
Mia Horne 21:15.60 20:53.40 22.20
Rebekah Kinikini 21:16.10 21:49.50 ( 33.40 )
Jessica Glaser 21:17.20 19:57.30 1:19.90
Lauren Mcarthur 21:17.30 20:17.20 1:00.10
Ashlyn Baker 21:18.20 19:43.80 1:34.40
Kathya Guzman 21:18.30 22:11.10 ( 52.80 )
Isabella Van Brock 21:19.20 20:59.70 19.50
Abigail Israelsen 21:19.90 20:58.70 21.20
Anna Thomas 21:20.70 24:34.70 ( 3:14.00 )
Jennifer Thomas 21:20.90 22:00.56 ( 39.66 )
Sarah Hull 21:21.10 22:27.60 ( 1:06.50 )
Rachel Rosenberg 21:21.90 21:30.90 ( 9.00 )
Megan Ballard 21:23.00 21:35.50 ( 12.50 )
Sydney Vivian 21:23.20 23:13.40 ( 1:50.20 )
Purity Kattam 21:23.30 22:35.00 ( 1:11.70 )
Skylnn Humble 21:23.80 21:24.10 ( 0.30 )
Elisabeth Daniels 21:24.00 21:05.70 18.30
Emily Fielding 21:24.10 21:05.30 18.80
Victoria Price 21:25.60 21:29.50 ( 3.90 )
Cari Goddard 21:26.00 21:54.00 ( 28.00 )
Makayla Komer 21:26.30 18:49.80 2:36.50
Hannah Jorgensen 21:26.70 21:59.80 ( 33.10 )
Brynlee Bartlome 21:28.60 20:53.80 34.80
Mikaela Beck 21:28.84 21:21.60 7.24
Gorgeous Lee 21:29.30 23:38.60 ( 2:09.30 )
Rachel Barton 21:30.00 19:54.80 1:35.20
Isabelle Barlow 21:30.40 20:41.10 49.30
Alyse Searle 21:30.60 22:26.09 ( 55.49 )
Gracie Douglas 21:30.80 21:53.30 ( 22.50 )
Kiah Muramoto 21:31.10 22:19.10 ( 48.00 )
Isabella Brower 21:31.20 21:18.70 12.50
Rakell Heaton 21:31.30 20:46.00 45.30
Elaina Halls 21:32.30 20:14.20 1:18.10
Sydney Barney 21:32.30 21:31.00 1.30
Kaitlyn Jensen 21:32.40 21:53.30 ( 20.90 )
Kate Marler 21:33.30 23:06.90 ( 1:33.60 )
Whitney Scheffield 21:34.20 23:11.40 ( 1:37.20 )
Emily Hawkes 21:34.80 22:37.00 ( 1:02.20 )
Hailey Rigby 21:36.40 21:26.10 10.30
Lydia Petersen 21:36.40 23:00.00 ( 1:23.60 )
Addison Romney 21:37.00 22:21.60 ( 44.60 )
Hannah Conrad 21:37.10 19:45.90 1:51.20
Jessica Tyler 21:37.30 23:17.00 ( 1:39.70 )
Rachel Nielsen 21:37.70 20:28.21 1:09.49
Bell Samantha 21:38.12 23:37.75 ( 1:59.63 )
Isabella Pincock 21:38.34 21:57.34 ( 19.00 )
Remington Nash 21:38.50 19:27.00 2:11.50
Maci Sorensen 21:38.80 22:31.80 ( 53.00 )
Grace Jenkins 21:39.09 20:43.70 55.39
Tiea Paschal 21:39.30 21:30.90 8.40
Madelin Squire 21:39.60 22:47.10 ( 1:07.50 )
Cambrie Martell 21:40.50 22:11.90 ( 31.40 )
Morgan Mason 21:40.70 20:43.30 57.40
Jody Sagers 21:40.80 22:19.20 ( 38.40 )
Emma Evans 21:41.50 25:21.10 ( 3:39.60 )
Grace Butler 21:42.70 22:21.30 ( 38.60 )
Genesis Wunderlich 21:42.88 21:40.03 2.85
Tory Peters 21:43.20 21:33.70 9.50
Madison Mehrley 21:43.30 22:47.00 ( 1:03.70 )
Alison Jones 21:43.72 19:35.60 2:08.12
Natalie Light 21:45.50 22:24.10 ( 38.60 )
Melanie Collins 21:46.30 23:35.33 ( 1:49.03 )
Taylor Alger 21:46.60 21:34.20 12.40
Kennedi Schimbeck 21:48.80 20:20.80 1:28.00
Abigail Cannon 21:48.80 20:17.10 1:31.70
Kylee Brown 21:49.10 23:02.10 ( 1:13.00 )
Amelia Hunter 21:51.00 22:29.80 ( 38.80 )
Alena Starks 21:51.30 19:52.62 1:58.68
Haleigh Hansen 21:51.50 21:13.10 38.40
Kennedy Kawaguchi 21:52.30 23:14.00 ( 1:21.70 )
Sydney Black 21:53.00 24:25.60 ( 2:32.60 )
Lindsey Palmer 21:55.00 21:48.70 6.30
Madison Walker 21:55.00 21:57.00 ( 2.00 )
Chelise Murdock 21:55.30 24:47.00 ( 2:51.70 )
Vanya Do 21:55.40 22:43.50 ( 48.10 )
Ashley Lisonbee 21:55.40 23:07.30 ( 1:11.90 )
Mckenzie Gladding 21:56.20 21:42.50 13.70
Kayley Kerr 21:56.53 20:05.20 1:51.33
Ella Vitek 21:57.50 20:15.30 1:42.20
Sophie Chandler 21:57.60 20:56.70 1:00.90
Elizibeth Thompson 21:58.40 21:22.30 36.10
Anna Whitmore 21:59.10 23:23.41 ( 1:24.31 )
Brooke Hansen 21:59.84 19:27.90 2:31.94
Kaylee Glover 22:00.10 21:02.30 57.80
Kierra Allen 22:00.10 21:37.50 22.60
Ellie Anderson 22:00.60 22:10.00 ( 9.40 )
Paige Nguyen 22:00.70 21:55.00 5.70
Oaklie Hansen 22:01.30 22:11.10 ( 9.80 )
Cassidy Fife 22:02.00 21:11.50 50.50
Abby Lundberg 22:02.20 21:27.90 34.30
Josie Marshall 22:02.40 21:51.70 10.70
Kara Hastings 22:02.50 21:37.40 25.10
Lyndee Limburg 22:03.00 20:13.60 1:49.40
Daniella Williams 22:03.60 22:33.40 ( 29.80 )
Grace Neal 22:04.40 23:45.90 ( 1:41.50 )
Megan Woodward 22:05.00 22:17.60 ( 12.60 )
Genesis Robles 22:05.60 22:38.30 ( 32.70 )
Kaelyn Fusselman 22:06.70 24:31.90 ( 2:25.20 )
Maddy Smith 22:07.10 22:21.90 ( 14.80 )
Brianna Farnsworth 22:07.30 22:06.10 1.20
Kaleigh Glauser 22:07.70 22:05.00 2.70
Josie Wright 22:08.00 21:47.60 20.40
Brynlee Fish 22:08.70 21:58.50 10.20
Natalia Warren 22:09.00 21:49.00 20.00
Mia Giallorenzi 22:09.00 21:55.84 13.16
Madison Freestone 22:10.00 24:27.20 ( 2:17.20 )
Emilee Smith 22:10.40 29:52.70 ( 7:42.30 )
Barbara Gunter 22:10.60 21:49.10 21.50
Sarah Buening 22:11.30 19:57.00 2:14.30
Jane Anderson 22:13.12 20:43.10 1:30.02
Sarah Kurtz 22:13.40 22:22.40 ( 9.00 )
Angel Olson 22:13.59 23:29.12 ( 1:15.53 )
Olivia Packer 22:13.80 22:14.50 ( 0.70 )
Maren Street 22:13.80 20:40.00 1:33.80
Aliza Woolsey 22:14.40 22:45.80 ( 31.40 )
Christina Truong 22:14.70 22:22.50 ( 7.80 )
Felicity Williams 22:15.00 22:46.00 ( 31.00 )
Daisy Linford 22:15.20 23:05.40 ( 50.20 )
Abigail Lundberg 22:15.90 21:58.50 17.40
Shelby Oraskovich 22:16.60 21:48.90 27.70
Anja Cieslewicz 22:16.90 24:25.50 ( 2:08.60 )
Rachel Muhlestein 22:17.00 23:22.10 ( 1:05.10 )
Rebekah Preston 22:17.30 22:29.50 ( 12.20 )
Kensie Lafferty 22:17.50 22:34.40 ( 16.90 )
Hayley Matthews 22:17.70 27:49.80 ( 5:32.10 )
Sarah Winters 22:19.50 22:20.90 ( 1.40 )
Aspen Hodlmair 22:20.60 21:38.10 42.50
Camille Ericksen 22:21.00 21:40.40 40.60
Madison Palmer 22:22.00 20:36.10 1:45.90
Grace Christensen 22:22.30 23:25.60 ( 1:03.30 )
Ashley Min 22:23.10 24:12.00 ( 1:48.90 )
Emily Poulsen 22:23.30 21:28.10 55.20
Morgan Ashmead 22:23.34 23:15.78 ( 52.44 )
Linzy Flinders 22:23.60 20:00.10 2:23.50
Anna Rasmussen 22:23.90 22:11.38 12.52
Chloe Child 22:23.90 22:20.60 3.30
Joesi Rowley 22:24.10 25:13.70 ( 2:49.60 )
Megan Muir 22:24.30 22:11.30 13.00
Kelli Harker 22:25.20 21:31.60 53.60
Katie Killpack 22:25.40 21:33.80 51.60
Eden Beazer 22:26.00 21:10.40 1:15.60
Zoey Edgmon 22:26.02 21:52.97 33.05
Adalynn Sheffield 22:26.50 21:45.10 41.40
Trichell Silas 22:26.72 22:59.80 ( 33.08 )
Elise Burton 22:26.80 23:15.30 ( 48.50 )
Maddy Maxwell 22:27.00 20:41.60 1:45.40
Alexis Dietrick 22:27.40 21:52.40 35.00
Kylie Goff 22:28.10 22:47.00 ( 18.90 )
Sydnie Zundel 22:28.40 24:51.90 ( 2:23.50 )
Brynn Squires 22:28.40 21:03.10 1:25.30
Ellie Romero 22:28.60 23:31.10 ( 1:02.50 )
Morgan Mccleary 22:28.75 22:13.10 15.65
Macy Udy 22:28.80 23:49.30 ( 1:20.50 )
Christie Seamons 22:28.80 21:49.60 39.20
Kyana Swanson 22:29.00 21:32.30 56.70
Kilia Brawand 22:29.20 21:42.20 47.00
Gabrielle Parker 22:30.00 22:02.00 28.00
Alyx Scheetz 22:30.30 22:46.90 ( 16.60 )
Makayla Bell 22:30.70 23:38.30 ( 1:07.60 )
Kaylee Stettler 22:30.70 25:47.40 ( 3:16.70 )
Addy Rich 22:31.90 21:06.20 1:25.70
Julie Starr 22:32.80 22:46.30 ( 13.50 )
Lauren Cox 22:33.20 27:11.90 ( 4:38.70 )
Kendyl Jakins 22:33.30 22:21.40 11.90
Whitlee Rosquist 22:33.60 22:32.00 1.60
Juliet Tayler 22:34.50 23:02.70 ( 28.20 )
Sadie Starkey 22:35.20 23:59.10 ( 1:23.90 )
MaKayla McCurdy 22:35.40 23:33.20 ( 57.80 )
Mikayla Holiday 22:36.10 22:18.20 17.90
Olivia Wells 22:36.70 22:14.50 22.20
Olivia Atkin 22:38.80 20:45.30 1:53.50
Hailey Smith 22:38.80 25:08.60 ( 2:29.80 )
Kimberly Birt 22:41.00 22:21.20 19.80
Amanda Hatch 22:41.30 20:51.80 1:49.50
Becca Mathis 22:42.00 20:12.60 2:29.40
Aimee Davenport 22:42.50 23:08.90 ( 26.40 )
Ella Edgley 22:45.70 23:13.30 ( 27.60 )
Dakota Robinson 22:46.10 22:23.74 22.36
Corryn Anderson 22:46.40 22:29.10 17.30
Ellie Doxey 22:46.40 22:01.00 45.40
Ashley Barrett 22:46.50 22:08.30 38.20
Katie Freestone 22:46.50 22:59.20 ( 12.70 )
Maelee Allen 22:48.00 25:08.94 ( 2:20.94 )
Decker Claire 22:48.10 22:27.20 20.90
Julia Light 22:48.80 24:16.10 ( 1:27.30 )
Amy Robinson 22:48.90 22:32.10 16.80
Molli Eaton 22:49.10 21:51.70 57.40
Abby Ruegner 22:50.40 24:39.40 ( 1:49.00 )
Brooke Searle 22:50.70 23:12.10 ( 21.40 )
Annie Williams 22:51.10 24:00.44 ( 1:09.34 )
Morgan Egbert 22:51.12 22:03.72 47.40
Faith Amos 22:51.40 20:39.80 2:11.60
Sierra Renstrom 22:53.90 21:42.10 1:11.80
Ashley Larsen 22:53.90 24:48.20 ( 1:54.30 )
Kiely Rasmussen 22:54.30 21:32.50 1:21.80
Brooklyn Shepherd 22:54.60 25:41.90 ( 2:47.30 )
Brittany Frye 22:55.00 23:14.20 ( 19.20 )
Neve Black 22:55.80 20:34.40 2:21.40
Alexis Soper 22:56.59 22:03.00 53.59
Amy Stevens 22:59.50 22:58.60 0.90
Samantha Priestley 23:00.10 23:10.60 ( 10.50 )
Mckenna Alger 23:00.10 21:50.90 1:09.20
Lindsey Bouwhuis 23:00.66 24:30.00 ( 1:29.34 )
Zoa Daigle 23:00.70 24:01.90 ( 1:01.20 )
Sadie Farnsworth 23:00.90 23:57.00 ( 56.10 )
Arianna Valerio 23:01.90 22:34.60 27.30
Lainie Childers 23:03.50 22:29.81 33.69
Venna Harrison 23:04.20 22:25.40 38.80
Ashley Rowe 23:05.06 23:15.80 ( 10.74 )
Emily Roberts 23:05.20 26:59.90 ( 3:54.70 )
Sicily Willard 23:05.20 24:36.68 ( 1:31.48 )
Maddie Bossarte 23:07.00 20:23.70 2:43.30
Diantha Williamson 23:07.00 22:42.50 24.50
Cheyanne Maughan 23:07.10 24:43.43 ( 1:36.33 )
Mariah McDonald 23:07.70 21:07.80 1:59.90
Victoria Weser 23:07.80 24:36.60 ( 1:28.80 )
Chloe Lunt 23:08.40 20:47.60 2:20.80
Carilyn Pointer 23:08.70 22:24.00 44.70
Desiree Garcia 23:08.80 22:28.70 40.10
Hannah Mcgurk 23:08.97 21:02.80 2:06.17
Carli Begay 23:09.20 21:53.70 1:15.50
Abby Langston 23:09.50 21:14.90 1:54.60
Natalee Peterson 23:09.70 23:26.50 ( 16.80 )
Hannah Mayrin 23:10.60 25:40.50 ( 2:29.90 )
Gabby Huntsman 23:11.40 24:44.50 ( 1:33.10 )
Kiara Toscano 23:11.60 24:53.10 ( 1:41.50 )
Eliza Albrecht 23:12.10 20:54.70 2:17.40
Megan Swasey 23:12.80 24:03.60 ( 50.80 )
Cat Webster 23:13.30 19:11.39 4:01.91
Lochlyn Abbott 23:14.40 23:53.80 ( 39.40 )
Jessica Vick 23:14.80 23:34.90 ( 20.10 )
Lauren Dirks 23:15.10 21:44.30 1:30.80
Adelaide Anderson 23:17.00 22:37.50 39.50
Rachel Barker 23:17.10 21:40.50 1:36.60
Seanne Smith 23:17.90 20:54.10 2:23.80
Kenadie Neel 23:18.40 22:43.69 34.71
Emma Tadler 23:18.80 25:20.60 ( 2:01.80 )
Alicia Smith 23:19.60 21:43.30 1:36.30
Fiona Ambrose 23:21.40 20:47.00 2:34.40
Larissa Orison 23:22.00 21:42.00 1:40.00
Reagan Sedgwick 23:22.10 22:08.20 1:13.90
Adriana Austin 23:22.50 23:21.50 1.00
Rosy Stoddard 23:23.70 21:53.00 1:30.70
Amber Checketts 23:24.30 23:48.34 ( 24.04 )
Krissy Wheeler 23:24.40 21:43.80 1:40.60
Ashlynn Slade 23:25.00 23:54.70 ( 29.70 )
Leah Mendenhall 23:25.40 23:51.10 ( 25.70 )
Mikyla Dance 23:25.70 22:30.00 55.70
Mckenna Brackett 23:26.90 25:36.10 ( 2:09.20 )
Aubrey Carrick 23:27.20 22:48.60 38.60
Makenzie Stokes 23:28.70 23:00.21 28.49
Ashley Hortin 23:30.00 25:03.40 ( 1:33.40 )
Brynn Webster 23:30.30 21:56.19 1:34.11
Rebecca Cornell 23:30.30 22:36.40 53.90
Chelda Lunt 23:33.18 23:24.40 8.78
Courtney Furniss 23:33.90 21:17.70 2:16.20
Emily Cannegieter 23:34.40 23:10.00 24.40
Abigail Bankhead 23:35.50 22:38.10 57.40
Alesha Turnbow 23:37.85 21:05.20 2:32.65
Anavae Remetio 23:38.15 23:23.12 15.03
Aly Vanderwilt 23:38.30 23:57.00 ( 18.70 )
Lina Biasi 23:39.20 24:26.66 ( 47.46 )
Stephanie Weller 23:40.20 24:25.80 ( 45.60 )
Joelle Werlinger 23:40.30 23:29.40 10.90
Teanna Vigil 23:41.10 24:42.72 ( 1:01.62 )
Bahazhoni Filfred 23:43.00 24:16.50 ( 33.50 )
Martha Gill 23:43.30 24:50.50 ( 1:07.20 )
Brooklyn Taylor 23:43.60 22:46.00 57.60
Lindsay Riches 23:44.30 23:46.60 ( 2.30 )
Camille Waymont 23:44.40 21:43.30 2:01.10
Kyla Edgar 23:44.50 24:40.80 ( 56.30 )
Kianna Willie 23:45.00 24:15.71 ( 30.71 )
Tara Jones 23:45.00 23:59.20 ( 14.20 )
Abigayle Kendell 23:45.20 23:31.70 13.50
Madeline Wright 23:46.00 23:40.80 5.20
Grace Brown 23:46.20 23:44.40 1.80
Leeza Tymofichuk 23:46.40 31:14.10 ( 7:27.70 )
Yve Scribner 23:47.80 22:44.90 1:02.90
Megan Mathews 23:48.00 22:01.00 1:47.00
Faythe Evans 23:48.00 22:29.50 1:18.50
Madison Rowley 23:48.00 23:46.30 1.70
Harmony Tayler 23:48.30 25:43.70 ( 1:55.40 )
Megan Seamons 23:49.80 24:04.00 ( 14.20 )
Heidi Sundberg 23:51.40 23:15.60 35.80
Audrey Westwood 23:51.70 22:23.20 1:28.50
Gabby Mason 23:51.91 22:03.30 1:48.61
Kate Chatfield 23:53.00 21:53.40 1:59.60
Isabelle Ramos 23:53.40 20:59.50 2:53.90
Kirstin Williams 23:53.60 23:54.80 ( 1.20 )
Sagelyn Shoell 23:55.34 22:04.00 1:51.34
Millie Cox 23:56.00 23:39.00 17.00
Georgianna Arnell 23:56.80 23:58.10 ( 1.30 )
Anna Nelson 23:58.70 23:55.00 3.70
Lydia Pugh 23:59.30 24:08.62 ( 9.32 )
Adriana Cluff 23:59.80 24:03.00 ( 3.20 )
Kennedy Brewer 24:00.00 24:05.40 ( 5.40 )
Julia Anderson 24:00.00 22:47.50 1:12.50
Ellie Anderson 24:01.15 21:25.15 2:36.00
Makayla Lear 24:01.90 21:59.10 2:02.80
Allison King 24:02.20 23:20.60 41.60
Eliza Allen 24:02.20 22:34.20 1:28.00
Sydney Cockerhan 24:02.81 24:03.56 ( 0.75 )
Mary Case 24:03.90 24:48.00 ( 44.10 )
MacKenzie Bingham 24:05.00 20:20.10 3:44.90
Celeste Hilllhouse 24:06.00 22:22.47 1:43.53
Megan Dennis 24:06.50 24:11.50 ( 5.00 )
Jessie Glover 24:06.80 22:37.30 1:29.50
Serra St. Clair 24:07.00 24:14.70 ( 7.70 )
Holly Bingham 24:07.06 23:39.37 27.69
Whitnee Sowa 24:07.20 26:56.00 ( 2:48.80 )
Anya Weglarz 24:07.50 22:08.90 1:58.60
Abbie Bullock 24:07.80 26:39.70 ( 2:31.90 )
Emma Burnham 24:09.10 24:05.20 3.90
Rianna Holland 24:09.20 24:47.60 ( 38.40 )
Jade Garcia 24:09.60 23:01.10 1:08.50
Caitlyn Buss 24:10.00 23:42.00 28.00
Greta Sunderlage 24:10.30 24:15.00 ( 4.70 )
Pearl Marden 24:10.50 24:09.00 1.50
Breeley Dallin 24:11.00 23:05.80 1:05.20
Carli Heslop 24:11.80 23:56.88 14.92
Lauren Adams 24:13.20 22:21.20 1:52.00
Brianne Beard 24:13.30 22:04.40 2:08.90
Naomi Tebben 24:13.80 23:18.30 55.50
Brianna Dechet 24:15.10 21:32.90 2:42.20
Brynlie Goodliffe 24:16.30 22:46.10 1:30.20
Naomi Hymas 24:17.40 24:43.20 ( 25.80 )
Kennedy Foster 24:18.30 25:23.60 ( 1:05.30 )
Rylee Bateman 24:18.34 22:52.90 1:25.44
Elizabeth Vogel 24:19.20 23:34.30 44.90
Emily Stark 24:19.31 25:59.97 ( 1:40.66 )
Sarah Marble 24:19.60 24:23.00 ( 3.40 )
Emily Morris 24:19.80 25:03.50 ( 43.70 )
Brynlee Jones 24:20.90 22:46.20 1:34.70
Kayli Baker 24:21.00 24:23.18 ( 2.18 )
Emma Larkin 24:22.00 23:38.50 43.50
Bridget Johnston 24:22.50 22:29.20 1:53.30
Attalie Lunt 24:22.60 25:06.40 ( 43.80 )
Khari Cox 24:23.20 22:18.97 2:04.23
Leah Thackeray 24:23.20 23:01.44 1:21.76
Ally Smith 24:23.30 23:36.00 47.30
Bethany Justice 24:24.10 21:17.30 3:06.80
Kristina Deshazo-Pezold 24:24.80 23:16.20 1:08.60
Holly Hays 24:24.91 21:35.00 2:49.91
Heidi Thurman 24:25.00 24:15.31 9.69
Morgan Allen 24:25.20 23:01.40 1:23.80
Emily Baadsgaard 24:25.30 27:05.50 ( 2:40.20 )
Madilyn Butler 24:26.18 23:52.81 33.37
Hannah Jenkins 24:26.30 21:21.20 3:05.10
Gwendolyn Stewart 24:26.40 25:21.20 ( 54.80 )
Erica Anderson 24:27.60 29:12.60 ( 4:45.00 )
Shannon Lunt 24:29.10 22:58.00 1:31.10
Hailey Smith 24:29.30 22:42.50 1:46.80
Emmalee Hendry 24:29.70 24:16.60 13.10
Katelynn Mercer 24:30.00 26:05.20 ( 1:35.20 )
Corinne Wilkinson 24:30.60 25:45.60 ( 1:15.00 )
Abby Van De Graaff 24:30.60 24:51.10 ( 20.50 )
Savannah Johnson 24:31.90 23:51.20 40.70
Sarah Jex 24:32.30 24:09.10 23.20
Joanni Begay 24:32.60 22:54.00 1:38.60
Krista Van Valkenb 24:34.00 24:09.80 24.20
Catherine Petersen 24:34.70 25:38.60 ( 1:03.90 )
Jayda Thayn 24:35.30 20:37.00 3:58.30
Autumn Hancock 24:35.70 23:35.60 1:00.10
Rosana Martinez 24:36.00 25:19.90 ( 43.90 )
Amy Harvey 24:37.50 23:30.60 1:06.90
Yrene Heinze 24:38.00 23:18.30 1:19.70
Ryleigh Startup 24:38.10 25:42.50 ( 1:04.40 )
Natalie Haufe 24:38.70 23:46.90 51.80
Rachel Thomas 24:39.00 23:28.00 1:11.00
Shundean Begay 24:39.70 26:07.12 ( 1:27.42 )
Mya Jacobs 24:41.40 25:06.60 ( 25.20 )
Emily Dalley 24:41.60 26:19.60 ( 1:38.00 )
Ramsey Anderson 24:42.10 24:29.00 13.10
Karlee Thomas 24:42.60 25:46.80 ( 1:04.20 )
Abigayle Erickson 24:43.50 23:44.60 58.90
Emelie Burgon 24:43.50 24:17.60 25.90
Rayne Kenworthy 24:44.00 23:48.80 55.20
Kendra Burnett 24:44.60 26:23.90 ( 1:39.30 )
Lucy Horne 24:45.40 23:57.60 47.80
Lexie Owens 24:46.50 21:44.80 3:01.70
Vanessa Do 24:46.50 24:39.90 6.60
Savannah Withers 24:46.50 27:13.70 ( 2:27.20 )
Emma Egan 24:46.60 25:53.69 ( 1:07.09 )
Kayla Benedict 24:46.62 25:11.65 ( 25.03 )
Grace Christensen 24:46.70 25:12.00 ( 25.30 )
Jaynee Chee 24:46.90 24:20.46 26.44
Haylee Hobbs 24:48.00 22:20.70 2:27.30
Mckenzie Stokes 24:48.30 23:07.80 1:40.50
Sefia Thoreson 24:49.09 23:26.90 1:22.19
Kathryn Weaver 24:49.50 23:39.82 1:09.68
Emily Liddiard 24:49.80 24:21.90 27.90
Sarah Winn 24:50.60 24:32.10 18.50
Hailee Sickler 24:51.50 22:33.20 2:18.30
Jenna Losee 24:51.70 26:44.80 ( 1:53.10 )
Samantha Hotton 24:52.30 26:51.00 ( 1:58.70 )
Taylor Melvin 24:52.90 23:05.90 1:47.00
Alyssa Greer 24:52.90 22:59.20 1:53.70
Mercedes Zunich 24:53.10 27:14.08 ( 2:20.98 )
Elizabeth Johnson 24:55.00 24:14.09 40.91
Karrissa Lemmon 24:56.00 23:27.20 1:28.80
Morgan Newkirk 24:58.60 25:14.10 ( 15.50 )
Maren Rawlins 25:00.00 23:39.00 1:21.00
Taylor Janis 25:01.60 23:54.20 1:07.40
Ellie Nevers 25:03.40 26:06.50 ( 1:03.10 )
Lily Starley 25:03.60 21:49.30 3:14.30
Paige Taylor 25:04.46 21:13.00 3:51.46
Hailee Pearson 25:05.00 25:41.38 ( 36.38 )
Claire Booth 25:05.70 21:42.20 3:23.50
Hera Schick 25:05.90 25:25.50 ( 19.60 )
Gaby Sutherland 25:06.00 24:04.70 1:01.30
Madyson Childs 25:06.60 25:57.40 ( 50.80 )
Paige Demarco 25:06.60 24:06.00 1:00.60
Sheridan Backus 25:08.40 23:04.80 2:03.60
Sophie Childers 25:08.50 22:27.80 2:40.70
Addison Westwood 25:09.00 24:35.90 33.10
Haley Maki 25:09.09 22:20.60 2:48.49
Alexandria Taylor 25:10.10 26:07.00 ( 56.90 )
Alexandra Solum 25:10.60 22:36.10 2:34.50
Belle Bennett 25:11.00 23:14.00 1:57.00
Joann Linford 25:13.90 26:41.70 ( 1:27.80 )
Brenna Utley 25:14.80 28:39.30 ( 3:24.50 )
Maile Webb 25:16.00 23:30.40 1:45.60
Annalee Garner 25:16.03 24:19.25 56.78
Paris Snow 25:16.20 28:19.10 ( 3:02.90 )
Megan Liddiard 25:16.70 25:15.60 1.10
Emily Erekson 25:18.50 24:19.00 59.50
Elizabeth Brown 25:19.50 24:58.90 20.60
Elisabeth Heslop 25:19.88 25:11.38 8.50
Nicole Parkin 25:20.10 21:01.00 4:19.10
Anna Roberts 25:20.30 25:09.60 10.70
Katie Brotherson 25:20.80 22:31.50 2:49.30
River Hancey 25:21.40 23:34.60 1:46.80
Klarissa Hugh 25:21.80 26:48.40 ( 1:26.60 )
Bella Moses 25:22.00 23:48.60 1:33.40
Elizabeth Ashcraft 25:22.10 27:00.40 ( 1:38.30 )
Kyrene Benfield 25:23.00 25:00.70 22.30
Delaney Miller 25:23.10 26:36.50 ( 1:13.40 )
Kat Hall 25:23.20 21:33.60 3:49.60
Acelyn Fuentes 25:23.50 23:40.30 1:43.20
Callie Woolstenhulme 25:24.20 24:24.80 59.40
Leah Groberg 25:26.50 25:28.30 ( 1.80 )
Jessica Hawkins 25:26.60 23:47.10 1:39.50
Raegan Romney 25:26.70 26:06.00 ( 39.30 )
Macy Griffin 25:27.40 23:27.46 1:59.94
Kenzie Cloward 25:27.70 25:22.30 5.40
Mckayla Young 25:28.80 29:43.50 ( 4:14.70 )
Abby Khatri 25:30.70 27:55.70 ( 2:25.00 )
Abigail Hatch 25:30.80 28:14.70 ( 2:43.90 )
Elizabeth Lund 25:31.03 22:02.40 3:28.63
Julie Bankhead 25:32.00 26:54.10 ( 1:22.10 )
Abigail Anderson 25:32.10 23:44.18 1:47.92
Shelby Murray 25:33.69 24:46.90 46.79
Malia Sellers 25:37.30 25:27.20 10.10
Kierra Oyler 25:37.90 29:33.90 ( 3:56.00 )
Morgan Anderson 25:40.20 23:27.30 2:12.90
Melissa Giles 25:40.60 22:42.80 2:57.80
Madison Pitts 25:42.30 25:14.50 27.80
Gillian Perkins 25:42.50 27:55.20 ( 2:12.70 )
Mary Ipson 25:42.60 24:55.75 46.85
Elisa Boehm 25:43.00 21:28.30 4:14.70
Krystal Hulet 25:43.10 26:11.00 ( 27.90 )
Emily Malouf 25:43.70 23:17.50 2:26.20
Mallory Goodrich 25:45.10 25:02.60 42.50
Noelle Burton 25:45.30 25:04.80 40.50
Brooke Anderson 25:46.00 24:46.70 59.30
Ruby Sibul 25:46.20 25:38.80 7.40
Breanna Bratton 25:46.90 25:54.10 ( 7.20 )
Emma Oliver 25:48.00 22:17.00 3:31.00
Cassidie Higbee 25:48.60 25:31.90 16.70
Taryn Pistorius 25:49.00 25:32.10 16.90
Samatha Hotton 25:52.30 26:32.41 ( 40.11 )
Kate Roney 25:52.40 31:08.20 ( 5:15.80 )
Sophia Andrus 25:53.00 24:00.90 1:52.10
Rebekah Jardine 25:54.50 24:16.10 1:38.40
Kylie Felt 25:54.50 25:16.70 37.80
Brooklyn Eardley 25:55.30 23:54.50 2:00.80
Adia Johnson 25:56.30 25:03.30 53.00
London Kay 25:57.50 23:09.60 2:47.90
Courtney Vanderwerken 25:58.80 22:49.10 3:09.70
Kelley Degraaf 25:59.30 26:19.40 ( 20.10 )
Phoebe Clark 26:03.00 24:45.40 1:17.60
Katelyn Munford 26:03.40 27:02.30 ( 58.90 )
Charlotte Weintz 26:03.80 24:23.00 1:40.80
Lexie Leavitt 26:06.70 26:48.25 ( 41.55 )
Avery Wiberg 26:06.90 26:35.90 ( 29.00 )
Abigail Grundy 26:07.10 26:55.60 ( 48.50 )
Krista Van Valkenburgh 26:14.40 25:34.50 39.90
Calli Rowley 26:14.50 23:32.80 2:41.70
Osiris Astorga 26:15.00 29:28.80 ( 3:13.80 )
Elizabeth Walker 26:16.60 26:53.80 ( 37.20 )
Katelyn Simmons 26:18.70 28:11.52 ( 1:52.82 )
Lauren Bell 26:19.10 23:51.30 2:27.80
Joy Parker 26:19.60 23:29.90 2:49.70
Hannah Ferrell 26:21.30 24:46.20 1:35.10
Yixiao Burke 26:21.80 25:47.50 34.30
Cassidy Chamberlain 26:21.90 22:46.00 3:35.90
Myley George 26:22.10 29:24.80 ( 3:02.70 )
Hallie Steele 26:22.90 24:20.60 2:02.30
Ashlyn Gatherim 26:23.40 26:24.00 ( 0.60 )
Ivy Cluster 26:24.09 22:34.60 3:49.49
Gabrielle Walton 26:25.20 25:56.00 29.20
Kathrin Nixon 26:25.90 23:35.88 2:50.02
Astasia Gomez 26:26.50 22:30.90 3:55.60
Rachel Frei 26:29.30 27:28.12 ( 58.82 )
Ashlynn Wheelwright 26:30.60 25:00.00 1:30.60
Dixie Pierce 26:32.20 29:31.30 ( 2:59.10 )
Kari Evans 26:33.92 22:45.30 3:48.62
Emily Child 26:35.22 22:12.66 4:22.56
Atlantis Platt 26:38.22 26:59.72 ( 21.50 )
Kassidy Babcock 26:38.50 24:51.81 1:46.69
Taegen Ure 26:39.80 25:28.10 1:11.70
Kaycee Longhurst 26:41.70 23:12.30 3:29.40
Lyndee Day 26:42.00 26:31.00 11.00
Brynn Hart 26:42.10 25:11.00 1:31.10
Brynn Hull 26:43.38 24:38.00 2:05.38
Kelsey Owens 26:43.50 21:25.20 5:18.30
Heather Badger 26:44.00 24:36.50 2:07.50
Ariana Paul 26:44.30 25:11.70 1:32.60
Zoe Jarvis 26:44.80 24:59.30 1:45.50
Elaina Desmond 26:45.70 25:04.40 1:41.30
Bella Strang 26:45.90 25:35.84 1:10.06
Aubrey Moulton 26:50.00 25:07.70 1:42.30
Amelia Jarvis 26:51.50 23:50.50 3:01.00
Alyssa Goldthorpe 26:51.80 25:33.70 1:18.10
Kaili Osai 26:51.90 29:58.30 ( 3:06.40 )
Bailey Orton 26:52.10 26:53.60 ( 1.50 )
Emilee Price 26:53.90 26:10.60 43.30
Reagan Wexels 26:54.70 24:18.70 2:36.00
Isabeau Witkowski 26:56.60 26:50.80 5.80
Julie Curcio 26:56.72 30:12.00 ( 3:15.28 )
Aspyn Bedingfield 26:57.34 23:44.50 3:12.84
Hailey Hilliard 26:57.40 24:20.40 2:37.00
Ann Seo 27:02.60 24:47.30 2:15.30
Kaitlyn Slade 27:05.20 27:43.00 ( 37.80 )
Emily Bertola 27:05.50 24:42.60 2:22.90
Kyra Feland 27:06.10 24:17.50 2:48.60
Carla Prat 27:07.90 27:19.00 ( 11.10 )
Jaiden Taylor 27:11.00 22:33.50 4:37.50
Karisa Shoemaker 27:12.30 28:12.60 ( 1:00.30 )
Olivia White 27:13.06 26:53.20 19.86
Kaylee Chatfield 27:14.20 29:23.20 ( 2:09.00 )
Emily Jorgensen 27:15.56 23:56.20 3:19.36
Malue Moller 27:16.00 27:02.40 13.60
Sienna Hallows 27:16.40 26:19.30 57.10
Shalyce Gardner 27:16.60 27:20.10 ( 3.50 )
Emma Searle 27:17.00 29:18.80 ( 2:01.80 )
Juliana Barber 27:17.50 24:57.10 2:20.40
Elisabeth Issertell 27:18.10 29:20.30 ( 2:02.20 )
Breanne Hancock 27:24.60 28:52.70 ( 1:28.10 )
Hattie Cavin 27:29.10 23:16.00 4:13.10
Alana Buckman 27:29.30 22:17.90 5:11.40
Emma Peterson 27:30.40 24:25.10 3:05.30
Tianna Corpuz 27:35.70 21:43.30 5:52.40
Maya Ekstrom 27:39.80 24:01.40 3:38.40
Ragen Jolley 27:40.00 22:58.60 4:41.40
Emma Harris 27:40.80 26:33.80 1:07.00
Shanda Casas 27:42.70 23:30.70 4:12.00
Abrielle Frehner 27:44.00 24:31.50 3:12.50
Jana Miller 27:44.00 27:39.30 4.70
Brekke Pattison 27:45.40 25:22.90 2:22.50
Laura Pederson 27:46.60 28:23.70 ( 37.10 )
Izzy Ramos 27:53.54 21:08.97 6:44.57
Rylee Dorman 27:55.00 26:43.00 1:12.00
Hannah Graff 27:55.70 24:23.60 3:32.10
Jaelynn Heaton 27:58.10 28:38.90 ( 40.80 )
Elise Willits 27:59.00 26:39.10 1:19.90
Elizabeth Seegmiller 27:59.70 29:38.30 ( 1:38.60 )
Miriam Strain 28:03.40 25:43.20 2:20.20
Britlie Sharp 28:04.00 26:33.50 1:30.50
Julie Harris 28:04.15 28:28.90 ( 24.75 )
Jasmine Ruales 28:07.10 27:01.20 1:05.90
Kylee Herrick 28:08.30 28:57.30 ( 49.00 )
Leilani Ford 28:10.40 27:38.60 31.80
Kaya Heideman 28:13.70 23:09.30 5:04.40
Ava Vanmoorlehem 28:16.60 25:42.80 2:33.80
Lindsay Christensen 28:16.90 33:36.80 ( 5:19.90 )
Paige Stansfield 28:18.30 22:09.30 6:09.00
Tasiah Little 28:20.00 29:24.43 ( 1:04.43 )
Melody Wooten 28:20.10 22:59.80 5:20.30
Emma Butler 28:20.80 28:44.10 ( 23.30 )
Jillian Tillett 28:26.20 29:57.80 ( 1:31.60 )
Kate Shapiro 28:27.80 29:18.10 ( 50.30 )
Baylie Brown 28:28.20 21:56.00 6:32.20
Alexa Watne 28:28.30 26:47.70 1:40.60
Llljana Richards 28:29.30 31:25.30 ( 2:56.00 )
Suzanne Quinn 28:31.00 25:58.90 2:32.10
Heidi Ericksen 28:35.10 26:26.20 2:08.90
Abbi Bullock 28:37.46 23:49.30 4:48.16
Bailey Berntson 28:38.00 29:56.60 ( 1:18.60 )
Kyla Johnson 28:38.33 27:24.60 1:13.73
Ayla Mayrin 28:38.80 29:03.90 ( 25.10 )
Angela Brown 28:40.20 26:42.90 1:57.30
Caitlyn Carver 28:40.40 27:52.50 47.90
Phoebe Lund 28:46.70 27:20.48 1:26.22
Eleanor Smith 28:47.50 24:31.20 4:16.30
Carsen Poole 28:50.40 30:54.10 ( 2:03.70 )
Jessica Walker 28:50.90 26:33.30 2:17.60
Camri Fischer 28:52.00 21:44.80 7:07.20
Madison Tarbell 28:54.00 26:44.00 2:10.00
Halie Coates 28:56.80 29:35.06 ( 38.26 )
Bethany Nording 29:01.00 25:37.20 3:23.80
Caroline Jarvis 29:04.60 31:00.63 ( 1:56.03 )
Olivia Rigby 29:04.80 25:40.30 3:24.50
Beca Hale 29:04.90 30:15.20 ( 1:10.30 )
Lydia Schoenfeld 29:06.00 23:31.50 5:34.50
Brooklyn Wilson 29:09.20 26:06.10 3:03.10
Megan Sloan 29:10.80 27:26.80 1:44.00
Brianna Brady 29:14.00 24:34.80 4:39.20
Emma Lenhart 29:14.53 29:28.00 ( 13.47 )
Emma Buchanan 29:25.59 24:58.30 4:27.29
Mckayla Black 29:28.20 29:18.30 9.90
Elizabeth Gardner 29:29.70 31:59.88 ( 2:30.18 )
Simone Driscoll 29:31.30 25:52.60 3:38.70
Gaby Alba 29:32.70 26:39.60 2:53.10
Emily Hernandez 29:38.70 25:24.40 4:14.30
Mary Jenkins 29:44.40 29:22.20 22.20
Aubrynn Lovell 29:45.50 28:10.80 1:34.70
Ellis Laker 29:49.00 27:50.40 1:58.60
Emily Kajma 29:53.10 28:09.10 1:44.00
Megan Petty 30:01.20 26:32.80 3:28.40
Emily Spadafora 30:15.40 30:18.60 ( 3.20 )
Cadence Critchlow 30:36.50 29:08.70 1:27.80
Ashlee Hall 30:42.80 22:58.50 7:44.30
Juliana Martinez 30:53.10 25:59.70 4:53.40
Jessica Taylor 30:54.70 28:45.90 2:08.80
Katelyn Coates 30:56.40 32:13.60 ( 1:17.20 )
Kellie Munford 31:11.00 28:25.00 2:46.00
Nora Hanson 31:11.00 28:29.90 2:41.10
Ellie Seegmiller 31:13.00 33:12.77 ( 1:59.77 )
Rhiley Thomson 31:15.00 21:01.97 10:13.03
Casey Larsen 31:17.62 30:38.44 39.18
Morgan Schriever 31:18.90 24:10.10 7:08.80
Lauren Smith 31:23.75 27:27.90 3:55.85
Calli Carnahan 31:30.00 26:20.80 5:09.20
Janessa Jenkins 31:37.00 24:11.30 7:25.70
Elise House 31:53.30 31:58.10 ( 4.80 )
Ella Holden 31:57.00 24:38.50 7:18.50
Rylee Bunnell 32:05.20 30:07.30 1:57.90
Catherine Wright 32:20.00 28:09.20 4:10.80
Lea Seo 32:26.80 27:47.70 4:39.10
Talia Dean 32:28.59 26:44.10 5:44.49
Kya Durrant 32:30.00 32:22.80 7.20
Ambree Lovell 32:47.30 32:36.80 10.50
Ashley Elwood 32:50.40 35:50.50 ( 3:00.10 )
Courtney Phillips 32:50.90 29:39.10 3:11.80
Kenzie Hepworth 33:07.00 30:26.00 2:41.00
Amy Richards 33:18.90 28:34.80 4:44.10
Faith Rowley 33:26.00 29:06.50 4:19.50
Mckenna Sorenson 33:29.70 28:57.00 4:32.70
Kaia Jay 33:37.50 34:44.90 ( 1:07.40 )
Hallie Palmer 34:29.00 22:35.40 11:53.60
Layla Jenson 34:43.20 31:52.90 2:50.30
Allison Stasburg 34:45.87 32:28.50 2:17.37
Brynn Meredith 35:11.44 36:04.56 ( 53.12 )
Camille Britton 35:11.70 31:27.90 3:43.80
Tiana Sam 35:29.30 29:49.50 5:39.80
Savannah France 35:52.17 30:13.60 5:38.57
Brinley Miles 36:10.00 40:28.90 ( 4:18.90 )
Jessica Begay 36:42.00 30:38.50 6:03.50
Olivia Fairbanks 37:07.00 31:22.40 5:44.60
Olivia Fairanks 38:07.60 38:45.00 ( 37.40 )
Madison Pearson 38:33.70 32:34.50 5:59.20
Allison Flores 39:01.00 38:49.20 11.80
Sophie Rowley 39:05.00 31:53.90 7:11.10
Hannah Dansie 42:35.90 36:25.40 6:10.50
Brinley Christoffersen 1:07:55.00 27:29.01 40:25.99
Comments